TimeCDT,TemperatureF,Dew PointF,Humidity,Sea Level PressureIn,VisibilityMPH,Wind Direction,Wind SpeedMPH,Gust SpeedMPH,PrecipitationIn,Events,Conditions,WindDirDegrees,DateUTC
12:15 AM,65.5,58.1,77,30.05,10.0,NNE,4.6,-,N/A,,Clear,30,2013-07-24 05:15:00
12:35 AM,65.3,58.1,77,30.06,10.0,NE,3.5,-,N/A,,Clear,50,2013-07-24 05:35:00
12:55 AM,64.4,58.3,80,30.07,10.0,Calm,Calm,-,N/A,,Clear,0,2013-07-24 05:55:00
1:15 AM,63.1,58.3,84,30.07,10.0,Calm,Calm,-,N/A,,Clear,0,2013-07-24 06:15:00
1:35 AM,62.6,57.7,84,30.07,10.0,Calm,Calm,-,N/A,,Clear,0,2013-07-24 06:35:00
1:55 AM,61.7,58.1,88,30.07,10.0,Calm,Calm,-,N/A,,Clear,0,2013-07-24 06:55:00
2:15 AM,61.2,57.9,89,30.08,10.0,Calm,Calm,-,N/A,,Clear,0,2013-07-24 07:15:00
2:35 AM,59.9,57.2,91,30.08,10.0,Calm,Calm,-,N/A,,Clear,0,2013-07-24 07:35:00
2:55 AM,59.9,57.2,91,30.08,10.0,Calm,Calm,-,N/A,,Clear,0,2013-07-24 07:55:00
3:15 AM,59.9,57.0,90,30.08,10.0,Calm,Calm,-,N/A,,Clear,0,2013-07-24 08:15:00
3:35 AM,59.0,56.3,91,30.07,10.0,Calm,Calm,-,N/A,,Clear,0,2013-07-24 08:35:00
3:55 AM,59.0,56.5,91,30.08,10.0,Calm,Calm,-,N/A,,Clear,0,2013-07-24 08:55:00
4:15 AM,59.2,55.9,89,30.08,10.0,Calm,Calm,-,N/A,,Clear,0,2013-07-24 09:15:00
4:35 AM,58.1,55.2,90,30.08,10.0,Calm,Calm,-,N/A,,Clear,0,2013-07-24 09:35:00
4:55 AM,57.6,55.6,93,30.09,10.0,Calm,Calm,-,N/A,,Clear,0,2013-07-24 09:55:00
5:15 AM,57.7,55.6,92,30.09,10.0,North,3.5,-,N/A,,Clear,360,2013-07-24 10:15:00
5:35 AM,57.2,54.5,91,30.10,10.0,Calm,Calm,-,N/A,,Clear,0,2013-07-24 10:35:00
5:55 AM,57.0,54.7,92,30.11,10.0,NNW,3.5,-,N/A,,Clear,340,2013-07-24 10:55:00
6:15 AM,57.0,54.9,92,30.12,7.0,Calm,Calm,-,N/A,,Clear,0,2013-07-24 11:15:00
6:35 AM,56.7,54.5,92,30.11,7.0,Calm,Calm,-,N/A,,Clear,0,2013-07-24 11:35:00
6:55 AM,56.5,54.5,93,30.12,7.0,Calm,Calm,-,N/A,,Clear,0,2013-07-24 11:55:00
7:15 AM,57.4,55.8,94,30.12,7.0,Calm,Calm,-,N/A,,Clear,0,2013-07-24 12:15:00
7:35 AM,59.0,56.3,91,30.11,10.0,Calm,Calm,-,N/A,,Clear,0,2013-07-24 12:35:00
7:55 AM,60.8,57.4,88,30.12,10.0,NW,3.5,-,N/A,,Clear,310,2013-07-24 12:55:00
8:15 AM,61.9,57.7,86,30.11,10.0,Calm,Calm,-,N/A,,Clear,0,2013-07-24 13:15:00
8:35 AM,63.5,57.7,81,30.13,10.0,Calm,Calm,-,N/A,,Clear,0,2013-07-24 13:35:00
8:55 AM,65.5,57.9,77,30.12,10.0,Calm,Calm,-,N/A,,Clear,0,2013-07-24 13:55:00
9:15 AM,67.1,58.5,74,30.12,10.0,Calm,Calm,-,N/A,,Clear,0,2013-07-24 14:15:00
9:35 AM,68.4,59.2,72,30.13,10.0,Calm,Calm,-,N/A,,Clear,0,2013-07-24 14:35:00
9:55 AM,69.3,59.7,72,30.12,10.0,Calm,Calm,-,N/A,,Clear,0,2013-07-24 14:55:00
10:15 AM,71.2,60.4,69,30.12,10.0,Calm,Calm,-,N/A,,Clear,0,2013-07-24 15:15:00
10:35 AM,72.9,59.5,63,30.12,10.0,Calm,Calm,-,N/A,,Clear,0,2013-07-24 15:35:00
10:55 AM,73.6,59.7,62,30.12,10.0,Calm,Calm,-,N/A,,Clear,0,2013-07-24 15:55:00
11:15 AM,75.4,60.3,59,30.12,10.0,West,6.9,-,N/A,,Clear,280,2013-07-24 16:15:00
11:35 AM,75.6,59.4,57,30.12,10.0,SW,3.5,-,N/A,,Clear,230,2013-07-24 16:35:00
11:55 AM,75.9,58.6,55,30.12,10.0,SSW,3.5,-,N/A,,Clear,200,2013-07-24 16:55:00
12:15 PM,77.0,57.7,51,30.12,10.0,Calm,Calm,-,N/A,,Clear,0,2013-07-24 17:15:00
12:35 PM,77.9,58.1,50,30.11,10.0,NNW,3.5,-,N/A,,Clear,330,2013-07-24 17:35:00
12:55 PM,78.3,57.0,48,30.11,10.0,Calm,Calm,-,N/A,,Clear,0,2013-07-24 17:55:00
1:15 PM,79.3,58.3,48,30.10,10.0,Calm,Calm,-,N/A,,Clear,0,2013-07-24 18:15:00
1:35 PM,79.3,57.4,47,30.10,10.0,Calm,Calm,-,N/A,,Clear,0,2013-07-24 18:35:00
1:55 PM,80.1,59.9,50,30.09,10.0,South,4.6,-,N/A,,Clear,190,2013-07-24 18:55:00
2:15 PM,80.4,57.4,45,30.09,10.0,South,5.8,-,N/A,,Clear,190,2013-07-24 19:15:00
2:35 PM,81.0,59.7,48,30.09,10.0,SSW,6.9,-,N/A,,Clear,210,2013-07-24 19:35:00
2:55 PM,81.3,60.6,49,30.08,10.0,SSE,5.8,-,N/A,,Clear,150,2013-07-24 19:55:00
3:15 PM,81.5,61.5,51,30.08,10.0,ESE,5.8,-,N/A,,Clear,120,2013-07-24 20:15:00
3:35 PM,81.9,61.3,50,30.07,10.0,SE,5.8,-,N/A,,Scattered Clouds,130,2013-07-24 20:35:00
3:55 PM,82.6,59.5,45,30.05,10.0,South,4.6,-,N/A,,Clear,180,2013-07-24 20:55:00
4:15 PM,82.0,59.9,47,30.05,10.0,SSE,8.1,-,N/A,,Clear,150,2013-07-24 21:15:00
4:35 PM,82.2,58.6,45,30.03,10.0,South,5.8,-,N/A,,Clear,170,2013-07-24 21:35:00
4:55 PM,80.4,60.8,51,30.03,10.0,South,5.8,-,N/A,,Clear,180,2013-07-24 21:55:00
5:15 PM,79.7,62.6,56,30.04,10.0,SSE,4.6,-,N/A,,Clear,150,2013-07-24 22:15:00
5:35 PM,77.4,64.9,65,30.04,10.0,SSE,4.6,-,N/A,,Clear,150,2013-07-24 22:35:00
5:55 PM,76.1,63.7,65,30.04,10.0,SE,4.6,-,N/A,,Clear,140,2013-07-24 22:55:00
6:15 PM,76.3,63.3,64,30.03,10.0,SE,4.6,-,N/A,,Scattered Clouds,130,2013-07-24 23:15:00
6:35 PM,77.0,63.3,63,30.04,10.0,ESE,6.9,-,N/A,,Clear,120,2013-07-24 23:35:00
6:55 PM,76.5,63.5,64,30.03,10.0,SE,5.8,-,N/A,,Clear,130,2013-07-24 23:55:00
7:15 PM,76.3,63.7,65,30.04,10.0,SE,5.8,-,N/A,,Clear,140,2013-07-25 00:15:00
7:35 PM,75.2,64.2,69,30.04,10.0,SSE,4.6,-,N/A,,Clear,150,2013-07-25 00:35:00
7:55 PM,74.8,64.4,70,30.03,10.0,SE,4.6,-,N/A,,Clear,140,2013-07-25 00:55:00
8:15 PM,74.3,64.2,71,30.02,10.0,SE,4.6,-,N/A,,Clear,130,2013-07-25 01:15:00
8:35 PM,73.4,64.4,73,30.02,10.0,ESE,3.5,-,N/A,,Clear,120,2013-07-25 01:35:00
8:55 PM,72.1,64.6,77,30.02,10.0,Calm,Calm,-,N/A,,Clear,0,2013-07-25 01:55:00
9:15 PM,71.2,64.6,79,30.02,10.0,Calm,Calm,-,N/A,,Clear,0,2013-07-25 02:15:00
9:35 PM,70.7,64.6,81,30.02,10.0,Calm,Calm,-,N/A,,Scattered Clouds,0,2013-07-25 02:35:00
9:55 PM,70.2,64.8,83,30.03,10.0,SE,3.5,-,N/A,,Clear,140,2013-07-25 02:55:00
10:15 PM,69.8,64.8,84,30.05,10.0,SSE,3.5,-,N/A,,Scattered Clouds,160,2013-07-25 03:15:00
10:35 PM,69.8,64.6,83,30.06,10.0,SE,3.5,-,N/A,,Mostly Cloudy,140,2013-07-25 03:35:00
10:55 PM,70.0,64.4,82,30.06,10.0,SE,3.5,-,N/A,,Mostly Cloudy,140,2013-07-25 03:55:00
11:15 PM,70.0,64.4,82,30.05,10.0,ESE,4.6,-,N/A,,Mostly Cloudy,110,2013-07-25 04:15:00
11:35 PM,69.6,63.9,82,30.05,10.0,East,5.8,-,N/A,,Scattered Clouds,100,2013-07-25 04:35:00
11:55 PM,68.4,64.2,87,30.05,10.0,SE,4.6,-,N/A,,Clear,130,2013-07-25 04:55:00